View from above orbital plane
|
View from above satellite
|
Ground track
|
The orbit data is extracted from the following two-line orbital elements,
1 27601U 02056E 21058.86745403 -.00000057 00000-0 -56165-5 0 9994
2 27601 98.2016 87.1259 0071222 236.0862 298.3081 14.31991052951244
Epoch (UTC): | 27 February 2021 20:49:08 |
Eccentricity: | 0.0071222 |
inclination: | 98.2016° |
perigee height: | 734 km |
apogee height: | 836 km |
right ascension of ascending node: | 87.1259° |
argument of perigee: | 236.0862° |
revolutions per day: | 14.31991052 |
mean anomaly at epoch: | 298.3081° |
orbit number at epoch: | 95124 |
The dashed part of the orbit path shows where the satellite is in the earth's shadow,
|
|